Regional Weather Roundup
Issued by NWS

Home | Current Version | Previous Version | Graphics & Text | Print | Product List | Glossary On
Versions: 1 2 3 4 5 6 7 8 9 10 11 12 13 14 15 16 17 18 19 20 21 22 23 24 25 26 27 28 29 30 31 32 33 34 35 36 37 38 39 40 41 42 43 44 45 46 47 48 49 50
000
ASUS43 KMKX 190759
RWRWI

WISCONSIN REGIONAL WEATHER ROUNDUP
NATIONAL WEATHER SERVICE MILWAUKEE/SULLIVAN WI
200 AM CST SUN NOV 19 2017

NOTE: "FAIR" INDICATES FEW OR NO CLOUDS BELOW 12,000 FEET WITH NO
SIGNIFICANT WEATHER AND/OR OBSTRUCTIONS TO VISIBILITY.

WIZ001-002-006>008-014>016-023>028-190900-
NORTHWEST WISCONSIN

CITY           SKY/WX    TMP DP  RH WIND       PRES   REMARKS
SUPERIOR ARPT  PTCLDY    17   9  72 W9        30.00S WCI   5
ASHLAND        CLOUDY    20  11  68 W13       29.95S WCI   7
HAYWARD        CLOUDY    19   9  65 NW5       29.95S WCI  12
SIREN          CLEAR     16  10  76 W7        30.02R WCI   6
CUMBERLAND     CLEAR     18  10  73 NW10G18   29.98R WCI   6
RICE LAKE      MOCLDY    19  12  73 W13       30.00R WCI   6
CHETEK         PTCLDY    19  12  73 NW7       29.98R WCI  10
LADYSMITH      PTCLDY    20  13  73 NW12      29.96R WCI   8
EAU CLAIRE     CLOUDY    19  12  73 W14       29.99R WCI   6
MENOMONIE      PTCLDY    19  13  74 W10       30.02R WCI   8
NEW RICHMOND   CLEAR     17  10  72 W9        30.03S WCI   6
OSCEOLA        CLEAR     19  11  71 W8        30.07R WCI   8
$$

WIZ003>005-009-010-017-018-190900-
NORTH CENTRAL WISCONSIN

CITY           SKY/WX    TMP DP  RH WIND       PRES   REMARKS
MANITOWISH WTR LGT SNOW  18  17  95 NW10      29.85R WCI   6
ARBOR VITAE    FLURRIES  22  17  83 NW7       29.84S WCI  13
WOODRUFF       FLURRIES  22  17  83 NW7       29.84S WCI  13
RHINELANDER    FLURRIES N/A N/A N/A NW10G17   29.85R
EAGLE RIVER    LGT SNOW  20  16  83 NW13      29.83R WCI   7
LAND O LAKES   LGT SNOW  20  17  86 NW9       29.83R WCI  10
PHILLIPS       FLURRIES  18  12  76 W7G16     29.89R WCI   9
TOMAHAWK       LGT SNOW  21  16  81 NW6       29.87R WCI  13
MEDFORD        CLOUDY    21  12  69 NW12      29.88S WCI   9
MERRILL        FLURRIES  23  15  71 NW8       29.88S WCI  14
$$

WIZ029-030-035-036-043>047-190900-
CENTRAL WISCONSIN

CITY           SKY/WX    TMP DP  RH WIND       PRES   REMARKS
WAUSAU         CLOUDY    24  14  65 NW12      29.87R WCI  13
MOSINEE        NOT AVBL
MARSHFIELD     CLOUDY    23  14  68 NW15      29.89S WCI  10
STEVENS POINT  CLOUDY    24  14  63 NW10      29.90R WCI  14
WAUPACA        CLOUDY    30  17  58 W13       29.89R WCI  20
WAUTOMA        CLOUDY    27  17  66 W15G23    29.92R WCI  15
WISC RAPIDS    CLOUDY    25  14  63 NW15G22   29.92R WCI  13
CAMP DOUGLAS   MOCLDY   N/A N/A N/A NW15G25   29.95R
$$

WIZ011>013-019>022-031-037>040-048>050-190900-
NORTHEAST WISCONSIN

CITY           SKY/WX    TMP DP  RH WIND       PRES   REMARKS
ANTIGO         FLURRIES  22  14  72 NW14G26   29.85R WCI   9
SHAWANO        CLOUDY    29  18  63 NW14G22   29.87R WCI  19
OCONTO         CLOUDY    28  19  69 NW10      29.83R WCI  19
STURGEON BAY   MIX PCPN  30  22  72 NW17G23   29.82R WCI  18
GREEN BAY      CLOUDY    30  23  75 W17       29.85R WCI  18
MANITOWOC      CLOUDY    31  25  78 NW12      29.84R WCI  22
APPLETON       CLOUDY    28  18  64 NW12G18   29.85R WCI  18
CLINTONVILLE   CLOUDY    28  18  64 NW18      29.87R WCI  16
OSHKOSH        CLOUDY    29  19  66 NW14G23   29.87R WCI  18
$$

WIZ032>034-041-042-053>061-190900-
SOUTHWEST WISCONSIN

CITY           SKY/WX    TMP DP  RH WIND       PRES   REMARKS
LA CROSSE      PTCLDY    25  15  66 NW14      30.00S WCI  13
SPARTA         CLOUDY    26  16  65 NW14G20   29.98R WCI  14
VIROQUA        CLOUDY    24  19  78 NW12      29.95S WCI  13
BOSCOBEL       CLOUDY    28  16  60 W10       30.01R WCI  19
PRAIRIE DU CHI CLOUDY    27  15  62 W15G25    30.01R WCI  15
PLATTEVILLE    PTCLDY    27  20  76 NW15G23   29.96R WCI  15
$$

WIZ056-057-062-063-064-067-068-190900-
SOUTH CENTRAL WISCONSIN

CITY           SKY/WX    TMP DP  RH WIND       PRES   REMARKS
REEDSBURG      CLOUDY    26  16  64 W15G21    29.94R WCI  14
BARABOO/DELLS  CLOUDY    28  17  65 NW12G20   29.91R WCI  18
LONE ROCK      NOT AVBL
MINERAL POINT  CLOUDY    30  23  74 NW15      29.93R WCI  19
MADISON        CLOUDY    28  18  66 NW10G21   29.91R WCI  19
MIDDLETON      CLOUDY    31  21  68 NW14      29.92R WCI  20
WATERTOWN      CLOUDY    31  22  69 NW10      29.88R WCI  22
MONROE         MOCLDY    28  21  74 NW9       29.91R WCI  20
JANESVILLE     CLOUDY    32  23  69 NW13      29.91R WCI  22
$$

WIZ051-052-058>065-066-070>072-190900-
SOUTHEAST WISCONSIN

CITY           SKY/WX    TMP DP  RH WIND       PRES   REMARKS
MILWAUKEE      CLOUDY    34  21  59 NW21G26   29.86R WCI  22
WAUKESHA       CLOUDY    30  21  69 NW17      29.86R WCI  18
MILWAUKEE/TIMM CLOUDY    32  19  59 NW15G23   29.86R WCI  22
RACINE         CLOUDY    34  23  64 NW10G22   29.88R WCI  26
BURLINGTON     CLOUDY    34  28  77 NW10G18   29.87R WCI  26
KENOSHA        CLOUDY    34  22  61 NW14G30   29.87R WCI  25
FOND DU LAC    CLOUDY    30  18  60 NW16G23   29.87R WCI  19
SHEBOYGAN      CLOUDY    31  23  72 NW10G22   29.85R WCI  22
WEST BEND      CLOUDY    32  23  69 NW13G18   29.85R WCI  22
JUNEAU         CLOUDY    29  19  66 NW13G20   29.88R WCI  19
$$

LSZ147-162-190900-
LAKE SUPERIOR

STATION/POSITION TIME  TEMP    WIND        PRES    WAVE
                       AIR SEA DIR/SP/G            HT/PER
                 (UTC) (F)     (DEG/KT/KT) (MB)    (FT/S)
DEVILS ISLAND    0700   21     290/ 13/ 17 1014.6F
SAXON HARBOR     0740   22     290/ 10/ 16 1013.5R
$$

LMZ867-665-643>646-190900-
LAKE MICHIGAN

STATION/POSITION TIME  TEMP    WIND        PRES    WAVE
                       AIR SEA DIR/SP/G            HT/PER
                 (UTC) (F)     (DEG/KT/KT) (MB)    (FT/S)
N MID LAKE BUOY  0650   34 48  320/ 23/ 29 1007.3R   6/ 5
NORTHPORT PIER   0739   33     320/ 20/ 25 1008.5R
SHEBOYGAN LAKESH 0700   33     300/ 16/ 19 1010.1R
PORT WASHINGTON  0740   33     320/ 10/ 14 1011.9R
MILWAUKEE LAKESH 0730   34     320/ 13/ 16   N/A
S MID LAKE BUOY  0650   39 49  340/ 21/ 27 1009.0R   8/ 8
KENOSHA   LAKESH 0700   35     310/ 10/ 14 1010.5
$$

TC  - TEMPERATURE IN CELSIUS
VSB - VISIBILITY IN STATUTE MILES
WCI - WIND CHILL INDEX
HX  - HEAT INDEX




USA.gov is the U.S. government's official web portal to all federal, state and local government web resources and services.